Regional Weather Roundup
Issued by NWS Kansas City/Pleasant Hill, MO

Home | Current Version | Previous Version | Graphics & Text | Print | Product List | Glossary Off
Versions: 1 2 3 4 5 6 7 8 9 10 11 12 13 14 15 16 17 18 19 20 21 22 23 24 25 26 27

000
ASUS43 KEAX 280210
RWREAX

WEATHER ROUNDUP FOR EASTERN KANSAS AND NORTHWEST MISSOURI
NATIONAL WEATHER SERVICE KANSAS CITY/PLEASANT HILL MO
800 PM CST MON FEB 27 2017

KSZ040-057-103>105-MOZ028-029-037-043-280300-
...KANSAS CITY METROPOLITAN AREA...

CITY           SKY/WX    TMP DP  RH WIND       PRES   REMARKS
K.C. INTL      CLOUDY    58  44  60 S12       29.77F
K.C. DOWNTOWN  CLOUDY    60  46  59 S10       29.78F
LEES SUMMIT    CLOUDY    59  45  59 S12       29.80S
OLATHE - IXD   CLOUDY    55  48  77 SE7       29.79S
OLATHE - OJC   CLOUDY    54  46  74 SE6       29.79S
LAWRENCE         N/A    N/A N/A N/A MISG      29.76F

$$

MOZ001>008-011>017-020>025-030>033-038>040-044>046-053-054-280300-
...NORTHERN AND CENTRAL MISSOURI...

CITY           SKY/WX    TMP DP  RH WIND       PRES   REMARKS
ST. JOSEPH     CLEAR     52  37  56 S9        29.78R
MOSBY          CLOUDY    59  37  44 SE5       29.80S
WARRENSBURG    CLOUDY    55  43  62 SE9       29.81F
WHITEMAN AFB   MOCLDY    58  43  56 S9        29.81F
CLINTON        CLOUDY    59  45  58 S10       29.83F
SEDALIA        CLOUDY    59  40  49 SE9       29.85F
WARSAW         NOT AVBL
CHILLICOTHE      N/A     54  34  46 SE7       29.82F
KIRKSVILLE     CLOUDY    54  33  45 SE13      29.85F

$$

MOZ041-047>049-056>058-063>065-088>090-097-280300-
...EASTERN AND SOUTHERN MISSOURI...

CITY           SKY/WX    TMP DP  RH WIND       PRES   REMARKS
ST. LOUIS INTL MOCLDY    59  46  62 SE20G26   29.98S
SPIRIT OF STL  PTCLDY    60  45  57 S10G21    29.96R
COLUMBIA       PTCLDY    60  39  45 SE14      29.87F
JEFFERSON CITY PTCLDY    59  39  47 SE12      29.88F
ROLLA          PTCLDY    57  42  57 SE14G21   29.92S
OSAGE BEACH    CLOUDY    60  44  55 S12G18    29.89
SPRINGFIELD    CLOUDY    60  50  69 S20G28    29.90R
BRANSON        CLOUDY    55  48  76 SE13      29.95S
JOPLIN         CLOUDY    63  53  70 S16G24    29.85R
WEST PLAINS    CLOUDY    54  49  83 SE8G18    30.01S

$$

IAZ060-094-KSZ022-034>040-054-083-096-NEZ052-066-093-280300-
...KANSAS...SOUTHEAST NEBRASKA AND IOWA...

CITY           SKY/WX    TMP DP  RH WIND       PRES   REMARKS
TOPEKA         CLOUDY    55  47  74 SE3       29.75F
MANHATTAN      CLOUDY    52  43  71 E3        29.72F
EMPORIA        CLOUDY    55  47  74 SE14      29.74F
CHANUTE        CLOUDY    62  54  74 S14       29.80S
WICHITA        PTCLDY    56  44  64 SE12      29.71S
OMAHA          PTCLDY    45  29  53 SE7       29.75S
LINCOLN        CLOUDY    47  35  63 SE3       29.73F
FALLS CITY     CLEAR     50  34  54 S8        29.75R
LAMONI         CLOUDY    54  30  40 SE7       29.80F
DES MOINES     CLOUDY    52  28  39 E10       29.82F

$$





USA.gov is the U.S. government's official web portal to all federal, state and local government web resources and services.